Fairbanks, AK

7:09 PM AKST on February 23, 2017 (GMT -0900)
Fairbanks International

Weather History for PAFA - April, 2013

Change the Weather History Date:

Wednesday, April 17, 2013

  Actual Average Record
Temperature  
Mean Temperature 23 °F 34 °F  
Max Temperature 31 °F 46 °F 60 °F (1996)
Min Temperature 15 °F 22 °F -16 °F (1963)
Degree Days  
Heating Degree Days 42 31  
Month to date heating degree days 894 632  
Since 1 July heating degree days 13649 12682  
Cooling Degree Days 0 0  
Month to date cooling degree days 0 0  
Year to date cooling degree days 0 0  
Moisture  
Dew Point 7 °F    
Average Humidity 49    
Maximum Humidity 60    
Minimum Humidity 33    
Precipitation  
Precipitation 0.00 in 0.01 in 0.22 in (1947)
Month to date precipitation 0.31 0.14  
Year to date precipitation 1.84 1.39  
Snow  
Snow 0.00 in 0.10 in 3.10 in (1947)
Month to date snowfall 5.4 1.9  
Since 1 July snowfall 62.1 63.1  
Snow Depth 23.00 in    
Sea Level Pressure  
Sea Level Pressure 30.34 in    
Wind  
Wind Speed 10 mph (NNE)    
Max Wind Speed 22 mph    
Max Gust Speed -    
Visibility 10 miles    
Events      
T = Trace of Precipitation, MM = Missing Value Source: NWS Daily Summary

Daily Weather History Graph

Daily Weather History Graph

Search for Another Location

Airport or City:

Trip Planner

Search our weather history database for the weather conditions in past years. The results will help you decide how hot, cold, wet, or windy it might be!

Date:

Astronomy

Apr. 17, 2013 Rise Set
Actual Time 6:07 AM AKDT 9:36 PM AKDT
Civil Twilight 5:08 AM AKDT 10:35 PM AKDT
Nautical Twilight 3:36 AM AKDT 12:11 AM AKDT
Astronomical Twilight Sun does not rise Sun does not rise
Moon 10:44 AM AKDT (4/17) 4:09 AM AKDT (4/17)
Length of Visible Light 17h 27m
Length of Day
15h 28m
Waxing Crescent, 44% of the Moon is Illuminated
Apr 17
Waxing Crescent
Apr 18
First Quarter
Apr 25
Full
May 2
Last Quarter
May 9
New

Hourly Weather History & Observations

Time (AKDT) Temp. Windchill Dew Point Humidity Pressure Visibility Wind Dir Wind Speed Gust Speed Precip Events Conditions
12:53 AM 21.0 °F 12.4 °F 7.0 °F 55% 30.28 in 10.0 mi North 6.9 mph - N/A   Mostly Cloudy
1:53 AM 18.0 °F 9.8 °F 6.1 °F 60% 30.28 in 10.0 mi North 5.8 mph - N/A   Mostly Cloudy
2:53 AM 18.0 °F 7.7 °F 6.1 °F 60% 30.29 in 10.0 mi North 8.1 mph - N/A   Mostly Cloudy
3:53 AM 18.0 °F 7.7 °F 6.1 °F 60% 30.29 in 10.0 mi North 8.1 mph - N/A   Mostly Cloudy
4:53 AM 18.0 °F 6.9 °F 5.0 °F 57% 30.29 in 10.0 mi North 9.2 mph - N/A   Scattered Clouds
5:53 AM 17.1 °F 4.3 °F 5.0 °F 59% 30.29 in 10.0 mi North 11.5 mph - N/A   Scattered Clouds
6:53 AM 16.0 °F 5.3 °F 3.9 °F 59% 30.29 in 10.0 mi North 8.1 mph - N/A   Scattered Clouds
7:53 AM 17.1 °F 5.0 °F 3.9 °F 56% 30.30 in 10.0 mi North 10.4 mph - N/A   Scattered Clouds
8:53 AM 19.9 °F 9.3 °F 5.0 °F 52% 30.30 in 10.0 mi North 9.2 mph - N/A   Mostly Cloudy
9:53 AM 24.1 °F 14.4 °F 7.0 °F 48% 30.31 in 10.0 mi North 9.2 mph - N/A   Mostly Cloudy
10:53 AM 26.1 °F 16.2 °F 7.0 °F 44% 30.31 in 10.0 mi North 10.4 mph - N/A   Mostly Cloudy
11:53 AM 28.0 °F 17.5 °F 8.1 °F 43% 30.31 in 10.0 mi North 12.7 mph - N/A   Mostly Cloudy
12:53 PM 28.9 °F 20.4 °F 9.0 °F 43% 30.32 in 10.0 mi NNE 9.2 mph - N/A   Mostly Cloudy
1:53 PM 28.0 °F 16.1 °F 10.0 °F 47% 30.34 in 10.0 mi NE 16.1 mph - N/A   Scattered Clouds
2:53 PM 28.9 °F 18.2 °F 10.0 °F 45% 30.35 in 10.0 mi NNE 13.8 mph - N/A   Scattered Clouds
3:53 PM 28.0 °F 14.3 °F 10.9 °F 49% 30.36 in 10.0 mi NNE 21.9 mph - N/A   Scattered Clouds
4:53 PM 28.0 °F 15.3 °F 10.0 °F 47% 30.37 in 10.0 mi NNE 18.4 mph - N/A   Scattered Clouds
5:53 PM 28.0 °F 16.1 °F 10.0 °F 47% 30.38 in 10.0 mi NE 16.1 mph - N/A   Scattered Clouds
6:53 PM 28.0 °F 17.0 °F 10.0 °F 47% 30.39 in 10.0 mi NE 13.8 mph - N/A   Mostly Cloudy
7:53 PM 27.0 °F 16.7 °F 10.9 °F 51% 30.40 in 10.0 mi NNE 11.5 mph - N/A   Mostly Cloudy
8:53 PM 24.1 °F 14.4 °F 9.0 °F 53% 30.40 in 10.0 mi NE 9.2 mph - N/A   Scattered Clouds
9:53 PM 21.9 °F 14.5 °F 7.0 °F 53% 30.40 in 10.0 mi North 5.8 mph - N/A   Scattered Clouds
10:53 PM 19.9 °F - 5.0 °F 52% 30.40 in 10.0 mi Calm Calm - N/A   Partly Cloudy
11:53 PM 23.0 °F 14.7 °F 5.0 °F 46% 30.40 in 10.0 mi North 6.9 mph - N/A   Partly Cloudy